EW5291 Weather Reports


Display with metric or nautical units.
time (UTC)temp
F
wind
direction
speed
MPH
gust
MPH
rain 1hr
in
rain 24hr
in
rain mn
in
humidity
%
barometer
mb
20260507164003 63 0 0.0 0.0 0.00 0.40 0.00 29 1007.7
20260507163504 63 191 0.0 1.0 0.00 0.40 0.00 30 1007.8
20260507163004 62 190 0.0 2.0 0.00 0.40 0.03 33 1008.4
20260507162503 63 191 0.0 3.0 0.00 0.40 0.00 33 1007.9
20260507162003 62 191 0.0 3.0 0.00 0.40 0.00 29 1008.0
20260507161504 62 191 0.0 2.0 0.00 0.40 0.00 30 1008.0
20260507161502 61 190 0.0 2.0 0.00 0.40 0.03 30 1008.5
20260507160503 61 190 0.0 3.0 0.00 0.40 0.00 34 1008.1
20260507160003 61 190 0.0 4.0 0.00 0.40 0.03 30 1008.7
20260507155503 61 191 0.0 4.0 0.00 0.40 0.00 33 1008.2
20260507155004 61 191 0.0 2.0 0.00 0.40 0.00 35 1008.2
20260507154503 61 190 0.0 2.0 0.00 0.40 0.00 33 1008.2
20260507154003 61 191 0.0 2.0 0.00 0.40 0.00 31 1008.2
20260507153504 61 191 0.0 2.0 0.00 0.40 0.00 30 1008.4
20260507153009 61 190 0.0 2.0 0.00 0.40 0.03 37 1008.9
20260507152503 61 191 0.0 2.0 0.00 0.40 0.00 28 1008.3
20260507151505 59 190 0.0 6.0 0.00 0.40 0.03 32 1008.8
20260507151503 60 191 0.0 6.0 0.00 0.40 0.00 32 1008.3
20260507151003 60 191 0.0 6.0 0.00 0.40 0.00 31 1008.3
20260507150503 60 190 0.0 6.0 0.00 0.40 0.00 32 1008.4
20260507150002 60 190 0.0 6.0 0.00 0.40 0.03 31 1009.1
20260507145503 60 191 0.0 5.0 0.00 0.40 0.00 39 1008.6
20260507145004 60 191 0.0 5.0 0.00 0.40 0.00 38 1008.6
20260507144503 60 191 0.0 3.0 0.00 0.40 0.00 34 1008.6
20260507144003 59 191 0.0 3.0 0.00 0.40 0.00 37 1008.7
20260507143504 59 191 0.0 2.0 0.00 0.40 0.00 33 1008.8
20260507143004 59 191 0.0 3.0 0.00 0.40 0.00 41 1008.6
20260507143002 58 190 0.0 3.0 0.00 0.40 0.03 41 1009.1
20260507142504 58 190 0.0 3.0 0.00 0.40 0.00 40 1008.5
20260507142003 58 191 0.0 6.0 0.00 0.40 0.00 40 1008.6
20260507141504 57 190 0.0 6.0 0.00 0.40 0.03 40 1009.0
20260507141003 58 191 0.0 1.0 0.00 0.40 0.00 34 1008.6
20260507140503 57 191 0.0 1.0 0.00 0.40 0.00 42 1008.7
20260507140003 56 190 0.0 1.0 0.00 0.40 0.03 41 1009.1
20260507135504 57 191 0.0 2.0 0.00 0.40 0.00 46 1008.6
20260507135003 56 191 0.0 5.0 0.00 0.40 0.00 45 1008.6
20260507134503 56 190 0.0 5.0 0.00 0.40 0.03 42 1009.1
20260507133504 56 191 0.0 1.0 0.00 0.40 0.00 43 1008.5
20260507133007 55 190 0.0 1.0 0.00 0.40 0.03 46 1008.9
20260507133003 56 191 0.0 1.0 0.00 0.40 0.00 46 1008.5
20260507132503 56 0 0.0 0.0 0.00 0.40 0.00 51 1008.5
20260507131503 55 190 0.0 0.0 0.00 0.40 0.03 48 1008.9
20260507130503 54 0 0.0 0.0 0.00 0.40 0.00 50 1008.4
20260507130005 54 190 0.0 0.0 0.00 0.40 0.03 58 1009.0
20260507125504 54 0 0.0 0.0 0.00 0.40 0.00 54 1008.5
20260507125003 54 191 0.0 2.0 0.00 0.40 0.00 59 1008.5
20260507124503 53 190 0.0 2.0 0.00 0.40 0.03 52 1009.0
20260507124004 53 0 0.0 0.0 0.00 0.40 0.00 62 1008.6
20260507123503 52 0 0.0 0.0 0.00 0.40 0.00 67 1008.6
20260507123003 52 191 0.0 2.0 0.00 0.40 0.00 68 1008.5
20260507122003 51 191 0.0 5.0 0.00 0.40 0.00 72 1008.6
20260507121504 51 0 0.0 0.0 0.00 0.40 0.00 79 1008.5
20260507121502 51 190 0.0 0.0 0.00 0.40 0.03 79 1009.0
20260507121003 50 0 0.0 0.0 0.00 0.40 0.00 79 1008.5
20260507120503 50 191 0.0 1.0 0.00 0.40 0.00 80 1008.5
20260507120010 49 190 0.0 2.0 0.00 0.40 0.03 81 1009.0
20260507115504 49 0 0.0 0.0 0.00 0.40 0.00 82 1008.4
20260507114502 48 190 0.0 0.0 0.00 0.40 0.03 82 1008.8
20260507113503 48 0 0.0 0.0 0.00 0.40 0.00 82 1008.3
20260507113004 48 0 0.0 0.0 0.00 0.40 0.00 82 1008.2
20260507113002 47 190 0.0 0.0 0.00 0.40 0.03 82 1008.7
20260507112503 48 0 0.0 0.0 0.00 0.40 0.00 82 1008.2
20260507111507 47 190 0.0 0.0 0.00 0.40 0.03 82 1008.5
20260507110059 47 190 0.0 0.0 0.00 0.40 0.03 82 1008.4
20260507104557 47 190 0.0 0.0 0.00 0.40 0.03 82 1008.3
20260507103056 47 190 0.0 0.0 0.00 0.40 0.03 82 1008.0
20260507101616 47 190 0.0 0.0 0.00 0.40 0.03 82 1008.0
20260507100055 47 190 0.0 0.0 0.00 0.40 0.03 82 1007.8
20260507094553 47 190 0.0 0.0 0.00 0.40 0.03 82 1007.6
20260507093057 47 190 0.0 0.0 0.00 0.40 0.03 82 1007.6
20260507091555 47 190 0.0 0.0 0.00 0.40 0.03 82 1007.8
20260507090052 47 190 0.0 0.0 0.00 0.40 0.03 82 1007.9
20260507084550 48 190 0.0 0.0 0.01 0.40 0.03 82 1008.0
20260507083048 48 190 0.0 0.0 0.01 0.40 0.03 82 1008.1
20260507081546 48 190 0.0 0.0 0.01 0.40 0.03 82 1008.3
20260507080046 49 190 0.0 0.0 0.02 0.40 0.03 82 1007.8
20260507074545 49 190 0.0 0.0 0.01 0.39 0.02 82 1007.5
20260507073041 49 190 0.0 0.0 0.02 0.39 0.02 82 1007.9
20260507071540 49 190 0.0 0.0 0.02 0.39 0.02 82 1007.3
20260507070042 50 190 0.0 0.0 0.01 0.38 0.01 82 1007.7
20260507064542 50 190 0.0 0.0 0.01 0.38 0.01 82 1007.3
20260507063037 50 190 0.0 0.0 0.00 0.37 0.00 82 1007.3
20260507061536 50 190 0.0 0.0 0.00 0.37 0.00 82 1006.8
20260507060036 50 190 0.0 0.0 0.00 0.37 0.00 82 1006.9
20260507054530 50 190 0.0 0.0 0.00 0.37 0.00 82 1007.4
20260507053030 50 190 0.0 0.0 0.00 0.37 0.00 82 1007.7
20260507051529 50 190 0.0 0.0 0.00 0.37 0.00 82 1007.6
20260507050035 51 190 0.0 0.0 0.00 0.37 0.00 82 1008.0
20260507044525 51 190 0.0 0.0 0.00 0.37 0.00 82 1007.6
20260507043024 51 190 0.0 0.0 0.00 0.37 0.00 82 1007.8
20260507041537 51 190 0.0 0.0 0.00 0.37 0.00 82 1007.7
20260507040020 51 190 0.0 0.0 0.03 0.37 0.37 82 1007.4
20260507034518 51 190 0.0 0.0 0.05 0.37 0.37 82 1007.6
20260507033016 52 190 0.0 0.0 0.08 0.37 0.37 82 1007.7
20260507031514 52 190 0.0 0.0 0.09 0.37 0.37 81 1007.6
20260507031004 53 0 0.0 0.0 0.06 0.34 0.34 81 1007.2
20260507030004 54 191 0.0 1.0 0.06 0.34 0.34 81 1007.0
20260507030002 53 190 0.0 1.0 0.06 0.34 0.34 81 1007.3
20260507025003 56 191 0.0 3.0 0.05 0.32 0.32 82 1007.0
20260507024504 55 190 0.0 0.0 0.05 0.32 0.32 82 1007.3
20260507024003 56 0 0.0 0.0 0.04 0.31 0.31 82 1006.6
20260507023503 56 0 0.0 0.0 0.03 0.30 0.30 82 1006.8
20260507023004 56 0 0.0 0.0 0.02 0.29 0.29 82 1006.6
20260507022503 56 0 0.0 0.0 0.01 0.28 0.28 82 1006.4
20260507022003 57 0 0.0 0.0 0.01 0.28 0.28 82 1006.4
20260507021503 57 0 0.0 0.0 0.03 0.28 0.28 82 1006.3
20260507021004 57 0 0.0 0.0 0.03 0.28 0.28 82 1006.3
20260507020503 57 0 0.0 0.0 0.03 0.28 0.28 82 1006.2
20260507020004 58 0 0.0 0.0 0.03 0.28 0.28 82 1006.3
20260507015504 58 0 0.0 0.0 0.03 0.28 0.28 82 1006.4
20260507015004 58 0 0.0 0.0 0.02 0.27 0.27 82 1006.4
20260507014510 58 190 0.0 0.0 0.02 0.27 0.27 82 1006.6
20260507014504 58 0 0.0 0.0 0.02 0.27 0.27 82 1006.3
20260507014003 59 0 0.0 0.0 0.02 0.27 0.27 82 1006.2
20260507013503 59 0 0.0 0.0 0.02 0.27 0.27 82 1006.1
20260507013010 59 190 0.0 0.0 0.02 0.27 0.27 82 1006.3
20260507013003 59 0 0.0 0.0 0.02 0.27 0.27 82 1005.9
20260507012003 59 191 0.0 1.0 0.02 0.27 0.27 82 1005.9
20260507011504 59 191 0.0 1.0 0.00 0.25 0.25 82 1005.8
20260507011502 59 190 0.0 1.0 0.00 0.25 0.25 82 1006.1
20260507011004 59 191 0.0 1.0 0.00 0.25 0.25 82 1005.6
20260507010504 59 190 0.0 2.0 0.00 0.25 0.25 82 1005.4
20260507010004 59 191 0.0 4.0 0.00 0.25 0.25 82 1005.3
20260507005504 59 191 0.0 6.0 0.00 0.25 0.25 82 1005.4
20260507004504 59 191 0.0 4.0 0.00 0.25 0.25 82 1005.3
20260507003503 59 191 0.0 2.0 0.00 0.25 0.25 82 1005.3
20260507003011 59 190 0.0 1.0 0.00 0.25 0.25 82 1005.6
20260507003003 59 190 0.0 1.0 0.00 0.25 0.25 82 1005.3
20260507002503 59 191 0.0 2.0 0.00 0.25 0.25 82 1005.3
20260507002004 59 191 0.0 4.0 0.00 0.25 0.25 82 1005.3
20260507001512 59 190 0.0 4.0 0.00 0.25 0.25 82 1005.7
20260507001003 59 191 0.0 1.0 0.00 0.25 0.25 82 1005.3
20260507000503 59 191 0.0 1.0 0.00 0.25 0.25 82 1005.3
20260507000023 59 190 0.0 1.0 0.00 0.25 0.25 82 1005.5
20260506235503 59 0 0.0 0.0 0.00 0.25 0.25 82 1005.1
20260506235003 59 191 0.0 5.0 0.00 0.25 0.25 82 1005.1
20260506234512 59 190 0.0 7.0 0.00 0.25 0.25 82 1005.3
20260506234503 59 191 0.0 5.0 0.00 0.25 0.25 82 1005.1
20260506234003 59 191 0.0 4.0 0.00 0.25 0.25 82 1005.1
20260506233503 59 191 0.0 4.0 0.00 0.25 0.25 82 1005.1
20260506233016 59 190 0.0 6.0 0.00 0.25 0.25 82 1005.3
20260506232503 59 191 1.0 6.0 0.00 0.25 0.25 82 1004.9
20260506232004 59 190 0.0 6.0 0.00 0.25 0.25 82 1004.9
20260506231514 59 190 0.0 2.0 0.01 0.25 0.25 82 1005.2
20260506231503 59 191 0.0 2.0 0.01 0.25 0.25 82 1005.0
20260506231004 59 191 0.0 4.0 0.01 0.25 0.25 82 1004.9
20260506230011 59 190 0.0 2.0 0.02 0.25 0.25 82 1005.1
20260506230003 59 190 0.0 2.0 0.02 0.25 0.25 82 1004.9
20260506225503 59 190 0.0 2.0 0.03 0.25 0.25 82 1004.7
20260506225004 59 191 0.0 3.0 0.04 0.25 0.25 82 1004.8
20260506224513 59 190 0.0 3.0 0.04 0.25 0.25 82 1005.0
20260506224503 59 191 0.0 3.0 0.04 0.25 0.25 82 1004.9
20260506224003 59 191 0.0 3.0 0.04 0.25 0.25 82 1004.9
20260506223012 59 190 0.0 2.0 0.05 0.25 0.25 82 1005.0
20260506223003 59 191 0.0 1.0 0.05 0.25 0.25 82 1004.8
20260506222503 60 191 0.0 3.0 0.05 0.25 0.25 82 1004.7
20260506222003 60 191 0.0 3.0 0.04 0.24 0.24 82 1004.8
20260506221511 59 190 0.0 4.0 0.04 0.24 0.24 82 1005.0
20260506221504 60 191 0.0 4.0 0.04 0.24 0.24 82 1004.8
20260506220503 60 191 0.0 5.0 0.04 0.23 0.23 81 1004.8
20260506220012 59 190 0.0 6.0 0.05 0.23 0.23 81 1005.1
20260506220004 60 191 0.0 5.0 0.05 0.23 0.23 81 1004.9
20260506215004 60 191 0.0 2.0 0.03 0.21 0.21 82 1004.9
20260506214511 59 190 0.0 2.0 0.03 0.21 0.21 81 1005.2
20260506214504 60 190 0.0 2.0 0.03 0.21 0.21 81 1005.0
20260506214003 60 191 0.0 4.0 0.03 0.21 0.21 82 1004.9
20260506213503 60 191 0.0 4.0 0.04 0.21 0.21 81 1005.0
20260506213014 59 190 0.0 4.0 0.03 0.20 0.20 81 1005.4
20260506213004 60 191 0.0 4.0 0.03 0.20 0.20 81 1005.2
20260506212503 60 191 0.0 2.0 0.05 0.20 0.20 81 1005.1
20260506212004 60 191 0.0 4.0 0.07 0.20 0.20 81 1005.1
20260506211512 59 190 0.0 4.0 0.07 0.20 0.20 81 1005.2
20260506211503 60 191 0.0 4.0 0.07 0.20 0.20 81 1005.1
20260506211003 59 190 0.0 4.0 0.08 0.20 0.20 81 1005.0
20260506210504 59 191 0.0 4.0 0.07 0.19 0.19 81 1005.1
20260506210014 59 190 0.0 4.0 0.06 0.18 0.18 81 1005.3
20260506210003 59 190 0.0 4.0 0.06 0.18 0.18 81 1005.2
20260506205503 59 191 0.0 4.0 0.06 0.18 0.18 81 1005.1
20260506205004 59 191 0.0 2.0 0.07 0.18 0.18 81 1005.2
20260506204512 59 190 0.0 1.0 0.08 0.18 0.18 81 1005.4
20260506204503 59 191 0.0 1.0 0.09 0.18 0.18 81 1005.3
20260506204003 59 191 0.0 1.0 0.09 0.18 0.18 81 1005.3
20260506203504 59 191 0.0 3.0 0.08 0.17 0.17 81 1005.3
20260506203012 59 190 0.0 4.0 0.08 0.16 0.16 81 1005.6
20260506203003 59 191 0.0 4.0 0.08 0.16 0.16 81 1005.5
20260506202003 60 191 0.0 6.0 0.05 0.13 0.13 81 1005.5
20260506201513 59 190 0.0 6.0 0.06 0.13 0.13 81 1005.8
20260506201504 60 191 0.0 6.0 0.06 0.13 0.13 81 1005.5
20260506201003 60 191 0.0 3.0 0.05 0.12 0.12 81 1005.5
20260506200503 60 190 0.0 3.0 0.05 0.12 0.12 81 1005.6
20260506200014 59 190 0.0 2.0 0.05 0.12 0.12 81 1005.7
20260506200004 60 191 0.0 2.0 0.05 0.12 0.12 81 1005.5
20260506195503 60 191 0.0 3.0 0.05 0.12 0.12 80 1005.8
20260506194513 60 190 0.0 7.0 0.02 0.09 0.09 80 1006.0
20260506194504 60 191 1.0 7.0 0.02 0.09 0.09 80 1005.9
20260506194004 60 191 0.0 7.0 0.03 0.09 0.09 80 1005.9
20260506193503 61 191 0.0 3.0 0.03 0.08 0.08 80 1005.9
20260506193012 60 190 0.0 3.0 0.03 0.08 0.08 80 1006.1
20260506193004 61 191 0.0 3.0 0.03 0.08 0.08 80 1006.0
20260506192504 61 191 0.0 3.0 0.03 0.08 0.08 80 1005.9
20260506192003 61 191 0.0 3.0 0.03 0.08 0.08 80 1006.0
20260506191513 61 190 0.0 0.0 0.02 0.07 0.07 80 1006.1
20260506191504 62 0 0.0 0.0 0.02 0.07 0.07 80 1006.0
20260506191003 62 0 0.0 0.0 0.02 0.07 0.07 80 1006.0
20260506190503 62 191 0.0 2.0 0.03 0.07 0.07 80 1006.0
20260506190012 61 190 0.0 2.0 0.03 0.07 0.07 80 1006.1
20260506190004 62 191 0.0 2.0 0.03 0.07 0.07 80 1006.0
20260506185504 62 191 0.0 2.0 0.03 0.07 0.07 80 1006.0
20260506185003 62 190 0.0 2.0 0.04 0.07 0.07 80 1006.1
20260506184512 61 190 0.0 4.0 0.04 0.07 0.07 80 1006.1
20260506184504 61 190 0.0 2.0 0.04 0.07 0.07 80 1006.0
20260506184003 61 191 0.0 1.0 0.04 0.06 0.06 80 1006.1
20260506183504 61 0 0.0 0.0 0.04 0.05 0.05 80 1006.3
20260506183012 61 190 0.0 1.0 0.04 0.05 0.05 80 1006.4
20260506183004 61 0 0.0 0.0 0.04 0.05 0.05 80 1006.2
20260506182004 61 191 0.0 4.0 0.05 0.05 0.05 79 1005.8
20260506181513 61 190 0.0 4.0 0.05 0.05 0.05 79 1005.8
20260506181003 62 191 0.0 3.0 0.04 0.04 0.04 78 1006.0
20260506180503 62 191 0.0 3.0 0.04 0.04 0.04 78 1006.4
20260506180018 61 190 0.0 4.0 0.04 0.04 0.04 78 1006.6
20260506180005 62 191 0.0 4.0 0.04 0.04 0.04 78 1006.3
20260506175503 62 190 0.0 4.0 0.04 0.04 0.04 77 1006.4
20260506174513 62 190 0.0 6.0 0.03 0.03 0.03 75 1006.8
20260506174504 62 191 0.0 6.0 0.03 0.03 0.03 75 1006.8
20260506174003 63 190 0.0 6.0 0.02 0.02 0.02 74 1006.8
20260506173504 64 191 0.0 5.0 0.01 0.01 0.01 73 1007.0
20260506173012 64 190 0.0 4.0 0.01 0.01 0.01 72 1007.2
20260506172503 65 191 0.0 6.0 0.00 0.00 0.00 69 1007.3
20260506171518 66 190 0.0 6.0 0.00 0.00 0.00 65 1007.5
20260506171503 66 191 0.0 4.0 0.00 0.00 0.00 65 1007.4
20260506171003 67 191 1.0 6.0 0.00 0.00 0.00 64 1007.3
20260506170504 67 191 0.0 6.0 0.00 0.00 0.00 63 1007.2
20260506170013 67 190 0.0 7.0 0.00 0.00 0.00 61 1007.2
20260506170003 68 191 0.0 7.0 0.00 0.00 0.00 61 1007.1
20260506164512 68 190 0.0 9.0 0.00 0.00 0.00 58 1007.0
20260506164504 69 191 1.0 9.0 0.00 0.00 0.00 58 1006.9